#timestamp,LO_Frequency,Hit,StdDev 
1521262815.0,286046997.2,N
1521262815.9,286046997.2,N
1521262835.8,286046996.7,N
1521262855.6,286047000.9,N
1521262875.4,286046999.5,N
1521262895.3,286046998.4,N
1521262915.1,286046999.9,N
1521262935.9,286047000.5,N
1521262955.7,286047002.1,N
1521262975.5,286047002.6,N
1521262995.4,286047001.4,N
1521263015.2,286047001.7,N
1521263035.0,286047001.5,N
1521263036.0,286047001.5,N
1521263055.8,286047000.0,N
1521263075.6,286047002.1,N
1521263095.5,286046999.7,N
1521263115.3,286047002.8,N
1521263135.1,286046999.7,N
1521263155.9,286047002.0,N
1521263175.7,286046999.9,N
1521263195.6,286046999.7,N
1521263215.4,286047001.7,N
1521263235.2,286047000.9,N
1521263255.1,286046999.7,N
1521263256.0,286046999.7,N
1521263275.8,286047002.4,N
1521263295.6,286047001.6,N
1521263315.5,286046999.8,N
1521263335.3,286046999.7,N
1521263355.2,286047000.6,N
1521263375.0,286047004.2,N
1521263375.9,286047004.2,N
1521263395.7,286047001.4,N
1521263415.6,286046999.9,N
1521263435.4,286047000.0,N
1521263455.3,286047000.0,N
1521263475.1,286046998.7,N
1521263495.8,286046998.9,N
1521263515.7,286046998.9,N
1521263535.5,286046998.5,N
1521263555.4,286046996.9,N
1521263575.2,286046999.3,N
1521263595.0,286046998.2,N
1521263595.9,286046998.2,N
1521263615.8,286046998.2,N
1521263635.6,286046999.1,N
1521263655.5,286047001.2,N
1521263675.3,286047000.1,N
1521263695.1,286047002.8,N
1521263715.9,286047002.1,N
1521263735.7,286047000.0,N
1521263755.5,286046998.5,N
1521263775.4,286046998.8,N
1521263795.2,286046999.2,N
1521263815.1,286046998.5,N
1521263816.0,286046998.5,N
1521263835.8,286046998.8,N
1521263855.6,286046998.4,N
1521263875.5,286046998.1,N
1521263895.3,286047001.1,N
1521263915.2,286046998.5,N
1521263935.9,286046998.2,N
1521263955.7,286047000.9,N
1521263975.6,286047000.7,N
1521263995.4,286046999.9,N
1521264015.2,286047002.1,N
1521264035.1,286047003.4,N
1521264036.0,286047003.4,N
1521264055.8,286047001.3,N
1521264075.7,286047004.4,N
1521264095.5,286047004.1,N
1521264115.3,286047003.8,N
1521264135.2,286047002.1,N
1521264155.0,286047001.6,N
1521264155.9,286047001.6,N
1521264175.7,286047000.0,N
1521264195.6,286046999.7,N
1521264215.4,286047002.4,N
1521264235.3,286047000.1,N
1521264255.1,286047002.6,N
1521264256.0,286047002.6,N
1521264275.8,286047001.5,N
1521264295.7,286047003.3,N
1521264315.5,286047003.7,N
1521264335.4,286047002.5,N
1521264355.2,286047000.0,N
1521264375.0,286047000.5,N
1521264375.9,286047000.5,N
1521264395.8,286047000.6,N
1521264415.6,286047000.4,N
1521264435.4,286047002.1,N
1521264455.3,286047003.7,N
1521264475.1,286047003.2,N
1521264495.9,286047003.5,N
1521264515.7,286047003.2,N
1521264535.5,286047003.9,N
1521264555.4,286047004.4,Y
1521264575.2,286047002.3,P
1521264595.0,286047001.6,P
1521264595.9,286047001.6,P
1521264615.8,286047000.0,N
1521264635.6,286047000.3,N
1521264655.5,286047001.2,N
1521264675.3,286046997.0,Y
1521264695.1,286046996.4,P
1521264715.9,286046996.6,N
1521264735.7,286047001.1,N
1521264755.6,286046997.2,N
1521264775.4,286046998.6,N
1521264795.2,286046999.9,N
1521264815.1,286046999.8,N
1521264816.0,286046999.8,N
1521264835.8,286046998.2,N
1521264855.7,286047000.8,N
1521264875.5,286046998.1,N
1521264895.3,286046996.9,N
1521264915.2,286046998.7,N
1521264935.0,286046999.6,N
1521264935.9,286046999.6,N
1521264955.8,286047000.7,N
1521264975.6,286047000.5,N
1521264995.4,286046998.6,N
1521265015.3,286047000.5,N
1521265035.1,286047000.7,N
1521265055.8,286046998.4,N
1521265075.7,286046998.4,N
1521265095.5,286046997.2,N
1521265115.4,286046999.4,N
1521265135.2,286046996.8,N
1521265155.0,286046998.4,N
1521265155.9,286046998.4,N
1521265175.8,286046998.2,N
1521265195.6,286046997.2,N
1521265215.5,286046999.4,N
1521265235.3,286046997.8,N
1521265255.1,286046996.7,N
1521265275.9,286046997.4,N
1521265295.7,286046998.2,N
1521265315.5,286046998.3,N
1521265335.4,286047000.3,N
1521265355.2,286047000.9,N
1521265375.1,286047000.2,N
1521265376.0,286047000.2,N
1521265395.8,286047000.8,N
1521265415.6,286047000.2,N
1521265435.5,286047000.9,N
1521265455.3,286046999.2,N
1521265475.1,286046997.6,N
1521265495.9,286046997.4,N
1521265515.7,286046997.9,N
1521265535.6,286046997.2,N
1521265555.4,286046997.4,N
1521265575.2,286046997.9,N
1521265595.1,286046998.0,N
1521265596.0,286046998.0,N
1521265615.8,286046997.4,N
1521265635.7,286046996.7,N
1521265655.5,286046997.3,N
1521265675.3,286047000.8,N
1521265695.2,286046998.7,N
1521265715.0,286047000.9,N
1521265715.9,286047000.9,N
1521265735.8,286047000.4,N
1521265755.6,286046998.1,N
1521265775.4,286047000.9,N
1521265795.3,286047001.2,N
1521265815.1,286046999.1,N
1521265835.9,286046996.6,N
1521265855.7,286046996.7,N
1521265875.5,286046997.9,N
1521265895.4,286046998.0,N
1521265915.2,286046996.7,N
1521265935.0,286046996.6,N
1521265935.9,286046996.6,N
1521265955.8,286046997.1,N
1521265975.6,286046998.0,N
1521265995.5,286046998.7,N
1521266015.3,286047000.1,N
1521266035.1,286047000.2,N
1521266055.9,286046999.7,N
1521266075.7,286046998.8,N
1521266095.5,286046998.8,N
1521266115.4,286046996.6,N
1521266135.2,286046996.6,N
1521266155.1,286046997.7,N
1521266156.0,286046997.7,N
1521266175.8,286046997.8,N
1521266195.6,286046996.7,N
1521266215.5,286046997.9,N
1521266235.3,286046997.9,N
1521266255.1,286046996.6,N
1521266275.9,286046997.7,N
1521266295.7,286046997.4,N
1521266315.6,286046995.0,Y
1521266335.4,286046999.5,P
1521266355.2,286047001.1,N
1521266375.1,286046998.1,N
1521266376.0,286046998.1,N
1521266395.8,286047000.9,N
